| time (UTC) | temp F | wind direction | speed MPH | gust MPH | rain 1hr in | rain 24hr in | rain mn in | humidity % | barometer mb |
| 20260903134611 | 61 | 182 | 0.0 | 1.0 | 0.00 | 0.18 | 0.18 | 90 | 1013.3 |
| 20260903133051 | 61 | 182 | 0.0 | 2.0 | 0.00 | 0.18 | 0.18 | 90 | 1013.3 |
| 20260903131549 | 61 | 182 | 0.0 | 2.0 | 0.01 | 0.18 | 0.18 | 90 | 1013.3 |
| 20260903130049 | 60 | 182 | 0.0 | 1.0 | 0.02 | 0.18 | 0.18 | 91 | 1013.5 |
| 20260903124542 | 60 | 182 | 0.0 | 1.0 | 0.02 | 0.18 | 0.18 | 90 | 1013.7 |
| 20260903123041 | 60 | 182 | 0.0 | 2.0 | 0.03 | 0.18 | 0.18 | 90 | 1013.9 |
| 20260903121550 | 60 | 182 | 0.0 | 1.0 | 0.03 | 0.17 | 0.17 | 90 | 1013.9 |
| 20260903120051 | 60 | 182 | 0.0 | 1.0 | 0.03 | 0.16 | 0.16 | 90 | 1014.2 |
| 20260903114557 | 60 | 182 | 0.0 | 2.0 | 0.04 | 0.16 | 0.16 | 90 | 1014.3 |
| 20260903113039 | 60 | 182 | 0.0 | 1.0 | 0.03 | 0.15 | 0.15 | 90 | 1014.4 |
| 20260903111538 | 59 | 182 | 0.0 | 0.0 | 0.02 | 0.14 | 0.14 | 90 | 1013.9 |
| 20260903110037 | 59 | 182 | 0.0 | 0.0 | 0.01 | 0.13 | 0.13 | 90 | 1014.2 |
| 20260903104537 | 59 | 182 | 0.0 | 1.0 | 0.00 | 0.12 | 0.12 | 90 | 1014.0 |
| 20260903103035 | 59 | 182 | 0.0 | 0.0 | 0.00 | 0.12 | 0.12 | 90 | 1013.9 |
| 20260903101533 | 59 | 182 | 0.0 | 0.0 | 0.01 | 0.12 | 0.12 | 90 | 1014.1 |
| 20260903100031 | 60 | 182 | 0.0 | 1.0 | 0.01 | 0.12 | 0.12 | 90 | 1014.2 |
| 20260903094528 | 60 | 182 | 0.0 | 3.0 | 0.01 | 0.12 | 0.12 | 90 | 1014.5 |
| 20260903093029 | 61 | 182 | 1.0 | 4.0 | 0.08 | 0.12 | 0.12 | 90 | 1014.5 |
| 20260903091526 | 61 | 164 | 0.0 | 1.0 | 0.10 | 0.11 | 0.11 | 90 | 1014.7 |
| 20260903090025 | 61 | 164 | 0.0 | 1.0 | 0.10 | 0.11 | 0.11 | 90 | 1014.7 |
| 20260903084524 | 61 | 164 | 1.0 | 2.0 | 0.10 | 0.11 | 0.11 | 90 | 1014.8 |
| 20260903083023 | 61 | 164 | 0.0 | 1.0 | 0.03 | 0.04 | 0.04 | 90 | 1015.0 |
| 20260903081522 | 61 | 164 | 0.0 | 0.0 | 0.00 | 0.01 | 0.01 | 90 | 1015.0 |
| 20260903080021 | 61 | 164 | 0.0 | 1.0 | 0.00 | 0.01 | 0.01 | 90 | 1014.7 |
| 20260903074519 | 61 | 164 | 0.0 | 0.0 | 0.01 | 0.01 | 0.01 | 90 | 1014.6 |
| 20260903073023 | 61 | 164 | 0.0 | 1.0 | 0.01 | 0.01 | 0.01 | 89 | 1014.8 |
| 20260903071518 | 61 | 164 | 0.0 | 1.0 | 0.01 | 0.01 | 0.01 | 89 | 1014.9 |
| 20260903070017 | 61 | 164 | 0.0 | 1.0 | 0.01 | 0.01 | 0.01 | 89 | 1015.2 |
| 20260903064512 | 61 | 164 | 0.0 | 1.0 | 0.00 | 0.00 | 0.00 | 89 | 1015.2 |
| 20260903063008 | 61 | 164 | 0.0 | 1.0 | 0.00 | 0.00 | 0.00 | 89 | 1016.0 |
| 20260903061506 | 61 | 164 | 0.0 | 1.0 | 0.00 | 0.00 | 0.00 | 89 | 1016.3 |
| 20260903060005 | 61 | 164 | 0.0 | 2.0 | 0.00 | 0.00 | 0.00 | 89 | 1016.7 |
| 20260903054510 | 61 | 164 | 0.0 | 1.0 | 0.00 | 0.00 | 0.00 | 89 | 1016.5 |
| 20260903053101 | 61 | 164 | 0.0 | 1.0 | 0.00 | 0.00 | 0.00 | 89 | 1016.7 |
| 20260903051559 | 60 | 164 | 0.0 | 0.0 | 0.00 | 0.00 | 0.00 | 89 | 1016.8 |
| 20260903050057 | 60 | 164 | 0.0 | 1.0 | 0.00 | 0.00 | 0.00 | 89 | 1016.9 |
| 20260903044559 | 60 | 164 | 0.0 | 1.0 | 0.00 | 0.00 | 0.00 | 89 | 1016.9 |
| 20260903043052 | 60 | 164 | 0.0 | 1.0 | 0.00 | 0.00 | 0.00 | 89 | 1017.1 |
| 20260903041607 | 60 | 164 | 0.0 | 1.0 | 0.00 | 0.00 | 0.00 | 89 | 1017.1 |
| 20260903040051 | 60 | 164 | 0.0 | 1.0 | 0.00 | 0.00 | 0.00 | 89 | 1017.3 |
| 20260903034547 | 60 | 164 | 0.0 | 1.0 | 0.00 | 0.00 | 0.00 | 89 | 1017.8 |
| 20260903033046 | 60 | 164 | 0.0 | 1.0 | 0.00 | 0.00 | 0.00 | 89 | 1018.1 |
| 20260903031544 | 60 | 164 | 0.0 | 1.0 | 0.00 | 0.00 | 0.00 | 89 | 1017.9 |
| 20260903030044 | 60 | 164 | 0.0 | 1.0 | 0.00 | 0.00 | 0.00 | 88 | 1018.1 |
| 20260903024545 | 60 | 164 | 0.0 | 2.0 | 0.00 | 0.00 | 0.00 | 88 | 1018.0 |
| 20260903023044 | 60 | 178 | 1.0 | 3.0 | 0.00 | 0.00 | 0.00 | 87 | 1018.0 |
| 20260903021543 | 60 | 178 | 0.0 | 3.0 | 0.00 | 0.00 | 0.00 | 87 | 1018.2 |
| 20260903020049 | 60 | 181 | 0.0 | 2.0 | 0.00 | 0.00 | 0.00 | 87 | 1018.4 |
| 20260903014602 | 60 | 177 | 0.0 | 2.0 | 0.00 | 0.00 | 0.00 | 87 | 1018.4 |
| 20260903013051 | 60 | 177 | 0.0 | 3.0 | 0.00 | 0.00 | 0.00 | 87 | 1018.4 |
| 20260903011605 | 60 | 163 | 0.0 | 1.0 | 0.00 | 0.00 | 0.00 | 87 | 1018.5 |
| 20260903010057 | 61 | 144 | 1.0 | 4.0 | 0.00 | 0.00 | 0.00 | 87 | 1018.4 |
| 20260903004538 | 61 | 164 | 0.0 | 3.0 | 0.00 | 0.00 | 0.00 | 87 | 1017.9 |
| 20260903003036 | 61 | 162 | 1.0 | 2.0 | 0.00 | 0.00 | 0.00 | 87 | 1017.9 |
| 20260903001546 | 61 | 162 | 0.0 | 5.0 | 0.00 | 0.00 | 0.00 | 87 | 1017.9 |
| 20260903000036 | 61 | 159 | 0.0 | 2.0 | 0.00 | 0.00 | 0.00 | 86 | 1018.4 |
| 20260902234541 | 62 | 155 | 0.0 | 2.0 | 0.00 | 0.00 | 0.00 | 86 | 1018.5 |
| 20260902233037 | 62 | 155 | 0.0 | 1.0 | 0.00 | 0.00 | 0.00 | 85 | 1018.7 |
| 20260902231544 | 62 | 154 | 0.0 | 1.0 | 0.00 | 0.00 | 0.00 | 84 | 1018.8 |
| 20260902230040 | 63 | 155 | 0.0 | 2.0 | 0.00 | 0.00 | 0.00 | 82 | 1019.1 |
| 20260902224537 | 64 | 155 | 0.0 | 3.0 | 0.00 | 0.00 | 0.00 | 80 | 1019.0 |
| 20260902223040 | 64 | 169 | 0.0 | 1.0 | 0.00 | 0.00 | 0.00 | 78 | 1019.3 |
| 20260902221533 | 64 | 169 | 0.0 | 4.0 | 0.00 | 0.00 | 0.00 | 76 | 1019.4 |
| 20260902220036 | 65 | 360 | 0.0 | 3.0 | 0.00 | 0.00 | 0.00 | 75 | 1019.4 |
| 20260902214537 | 66 | 266 | 1.0 | 3.0 | 0.00 | 0.00 | 0.00 | 74 | 1019.3 |
| 20260902213031 | 66 | 54 | 0.0 | 2.0 | 0.00 | 0.00 | 0.00 | 74 | 1019.4 |
| 20260902211532 | 66 | 355 | 1.0 | 3.0 | 0.00 | 0.00 | 0.00 | 74 | 1019.5 |
| 20260902210030 | 66 | 46 | 1.0 | 4.0 | 0.00 | 0.00 | 0.00 | 74 | 1019.3 |
| 20260902204529 | 66 | 229 | 0.0 | 2.0 | 0.00 | 0.00 | 0.00 | 74 | 1019.5 |
| 20260902203029 | 66 | 284 | 0.0 | 4.0 | 0.00 | 0.00 | 0.00 | 74 | 1019.7 |
| 20260902201528 | 66 | 185 | 1.0 | 5.0 | 0.00 | 0.00 | 0.00 | 72 | 1019.8 |
| 20260902200028 | 66 | 174 | 0.0 | 4.0 | 0.00 | 0.00 | 0.00 | 73 | 1020.0 |
| 20260902194542 | 66 | 180 | 0.0 | 5.0 | 0.00 | 0.00 | 0.00 | 73 | 1020.2 |
| 20260902193027 | 66 | 12 | 0.0 | 4.0 | 0.00 | 0.00 | 0.00 | 71 | 1020.4 |
| 20260902191526 | 67 | 127 | 1.0 | 5.0 | 0.00 | 0.00 | 0.00 | 73 | 1020.3 |
| 20260902190025 | 67 | 28 | 0.0 | 6.0 | 0.00 | 0.00 | 0.00 | 73 | 1020.3 |
| 20260902184528 | 66 | 39 | 0.0 | 3.0 | 0.00 | 0.00 | 0.00 | 75 | 1020.3 |
| 20260902183021 | 66 | 179 | 1.0 | 7.0 | 0.00 | 0.00 | 0.00 | 74 | 1020.3 |
| 20260902181519 | 66 | 29 | 0.0 | 4.0 | 0.00 | 0.00 | 0.00 | 75 | 1020.5 |
| 20260902180020 | 66 | 90 | 0.0 | 3.0 | 0.00 | 0.00 | 0.00 | 74 | 1020.5 |
| 20260902174518 | 66 | 156 | 0.0 | 3.0 | 0.00 | 0.00 | 0.00 | 72 | 1020.7 |
| 20260902173024 | 66 | 176 | 0.0 | 3.0 | 0.00 | 0.00 | 0.00 | 71 | 1020.5 |
| 20260902171517 | 66 | 173 | 0.0 | 3.0 | 0.00 | 0.00 | 0.00 | 72 | 1020.5 |
| 20260902170019 | 66 | 176 | 0.0 | 3.0 | 0.00 | 0.00 | 0.00 | 71 | 1020.6 |
| 20260902164615 | 66 | 154 | 2.0 | 5.0 | 0.00 | 0.00 | 0.00 | 73 | 1020.4 |
| 20260902163011 | 66 | 161 | 2.0 | 5.0 | 0.00 | 0.00 | 0.00 | 74 | 1020.7 |
| 20260902161511 | 65 | 146 | 1.0 | 3.0 | 0.00 | 0.00 | 0.00 | 77 | 1020.9 |
| 20260902160010 | 65 | 189 | 0.0 | 4.0 | 0.00 | 0.00 | 0.00 | 80 | 1021.0 |
| 20260902154510 | 66 | 295 | 0.0 | 2.0 | 0.00 | 0.00 | 0.00 | 81 | 1021.1 |
| 20260902153010 | 65 | 295 | 1.0 | 4.0 | 0.00 | 0.00 | 0.00 | 82 | 1021.1 |
| 20260902151507 | 65 | 161 | 2.0 | 5.0 | 0.00 | 0.00 | 0.00 | 82 | 1021.2 |
| 20260902150006 | 66 | 128 | 0.0 | 3.0 | 0.00 | 0.00 | 0.00 | 81 | 1021.2 |
| 20260902144504 | 65 | 135 | 0.0 | 2.0 | 0.00 | 0.00 | 0.00 | 81 | 1020.9 |
| 20260902143109 | 64 | 130 | 1.0 | 6.0 | 0.00 | 0.00 | 0.00 | 85 | 1020.8 |
| 20260902141557 | 64 | 150 | 1.0 | 3.0 | 0.00 | 0.00 | 0.00 | 86 | 1020.9 |
| 20260902140055 | 63 | 202 | 0.0 | 3.0 | 0.00 | 0.00 | 0.00 | 87 | 1020.8 |